Location: Castle Hill Houses
(40.8186°N, 73.8497°W)
Time: 06:26:48
(UTC+00:00)

SL-4 R/B - Pass Details

Date: 26 January 2020
Orbit: 428 x 666 km, 51.6° (Epoch: 24 February)

Event Time Altitude Azimuth Distance (km) Brightness Sun altitude
Exits shadow 10:27:57 12° 196° (SSW) 1,412 4.0 -19.5°
Drops below altitude 10° 10:28:30 10° 188° (S) 1,546 4.3 -19.4°
Sets 10:31:05 0° 167° (SSE) 2,389 5.6 -19.0°
